MIDAS 3 DEB, 188

Orbit data source: Space-Track

MIDAS 3 DEB, 188 is space debris in LEO originally from a launch on Wed, 12 Jul 1961 UTC launched from the Air Force Western Test Range (AFWTR). Debris objects in space refer to the collection of defunct objects orbiting the Earth. Examples of debris include non-operational satellites, rocket bodies, and fragments generated from explosions, collisions, or faulty payload assembly.

Loading next visibility...
MIDAS 3 DEB details
Identifier
188, 1961-018C
Orbit
LEO
Last TLE update20 hours ago
Origin
Flag of USUSAF SSD (US)
ManufacturerUnknown
MissionSpacecraft
Bus & MotorUnknown
Mass~10 kg wet, ~10 kg dry
Launch date (UTC)
1961-07-12 (64 years ago)
Launch vehicleUnknown
Launch site
Air Force Western Test Range (AFWTR)
Object type
Payload
Rocket body
Debris
Shape & HBRUnknown
Radar Cross SectionMedium (>0.1 m² and <1 m²)

Expand to show TLE details & history

TLE from 20 hours ago
0 MIDAS 3 DEB
1 00188U 61018C   25044.74817478 -.00000011  00000-0 -41814-2 0  9998
2 00188  91.0966 187.0516 0132259 196.4984 163.1561  8.93836022 74556
Epoch: 2025-02-13T17:57Z
Definitive object data (Epoch: 2025-02-13T17:57:22.3Z)
Latitude-0.00006°
Longitude133.68884°
Altitude3,556.022 km
Speed6.295 km/s
True Right ascension12h 28m 12s
True Declination0° 00' 00"
Sunlit
Object was in daylight at TLE epoch
Visualization TLE readout
Latitude-41.17632°
Longitude-47.23061°
Altitude3,327.431 km
Speed6.447 km/s
Apparent Right ascension02h 12m 33s
Apparent Declination-45° 53' 52"
Sunlit
Object is in daylight
Visualization observer readout
Local Sidereal Time17:03:14
Azimuth115.247° SE
Elevation-58.565°
Doppler factor1
Orbital elements
Apogee altitude3,556.923 km
Perigee altitude3,297.553 km
Semi-major axis9,805.375 km
Eccentricity0.0132259
Inclination91.0966°
RAAN187.0516°
Arg. of periapsis196.4984°
True anomaly163.58841°
Mean anomaly163.1561°
Eccentric anomaly163.37293°
Mean motion2.23536 °/min
BSTAR-0.0041814
Orbital period161.05 mins
Loading maneuver chart data...
Loading historical data...
Loading historical data...
Loading historical data...
Loading historical data...
Loading historical data...
Loading historical data...
Loading historical data...

MIDAS 3 DEB Visibility forecast

Observer location: undefined°, undefined

Span
Click to sort rows by Start time (UTC) header in descending order
Start Az.
Max El. time (UTC)
Max El. Az.
Max El.
End time (UTC)
End Az.
24 mins2025-02-14 18:57:16.634Z21.583° NNE2025-02-14 19:09:16.634Z68.071° E20.853°2025-02-14 19:21:16.634Z114.614° SE
33 mins2025-02-14 21:36:16.634Z3.001° NNE2025-02-14 21:52:16.634Z341.48° N44.998°2025-02-14 22:09:16.634Z188.388° SSW
22 mins2025-02-15 00:18:16.634Z345.737° N2025-02-15 00:29:16.634Z302.474° NW22.474°2025-02-15 00:40:16.634Z259.833° W
29 mins2025-02-15 07:40:16.634Z123.855° SE2025-02-15 07:54:16.634Z66.509° ENE32.765°2025-02-15 08:09:16.634Z6.273° NNE
34 mins2025-02-15 10:16:16.634Z192.559° SSW2025-02-15 10:33:16.634Z276.729° WNW41.904°2025-02-15 10:50:16.634Z352.93° N
10 mins2025-02-15 13:14:16.634Z287.901° WNW2025-02-15 13:19:16.634Z305.124° NW11.75°2025-02-15 13:24:16.634Z322.34° NNW
|